This is the latest recevied weather packets stored in our database for station/object EW1917. If no packets are shown the sender has not sent any weather packets the latest 10 day(s).
| Time | Temp. | Humidity | Pressure | Rain* | Wind** | Luminosity | Snow |
|---|---|---|---|---|---|---|---|
| 1778294871 | 10° C | 91% | 1015 hPa | 0 mm | - | 0 W/m² | - |
| 1778293971 | 10° C | 92% | 1015 hPa | 0 mm | - | 0 W/m² | - |
| 1778293674 | 10° C | 92% | 1015 hPa | 0 mm | - | 0 W/m² | - |
| 1778292812 | 10° C | 90% | 1015 hPa | 0 mm | - | 0 W/m² | - |
| 1778290074 | 10.56° C | 90% | 1015.2 hPa | 0 mm | - | 0 W/m² | - |
| 1778289471 | 10.56° C | 92% | 1015.1 hPa | 0 mm | - | 0 W/m² | - |
| 1778286474 | 10.56° C | 89% | 1015.2 hPa | 0 mm | - | 0 W/m² | - |
| 1778285875 | 11.11° C | 91% | 1015.2 hPa | 0 mm | - | 0 W/m² | - |
| 1778284675 | 10.56° C | 89% | 1015.3 hPa | 0 mm | - | 0 W/m² | - |
| 1778283471 | 11.11° C | 88% | 1015.2 hPa | 0 mm | - | 0 W/m² | - |
| 1778282571 | 11.11° C | 88% | 1015.2 hPa | 0 mm | - | 0 W/m² | - |
| 1778281671 | 11.67° C | 87% | 1015.3 hPa | 0 mm | - | 0 W/m² | - |
| 1778281374 | 11.67° C | 87% | 1015.3 hPa | 0 mm | - | 0 W/m² | - |
| 1778279571 | 11.67° C | 86% | 1015.5 hPa | 0 mm | - | 0 W/m² | - |
| 1778278671 | 12.22° C | 84% | 1015.5 hPa | 0 mm | - | 0 W/m² | - |
| 1778276874 | 12.78° C | 84% | 1015.2 hPa | 0 mm | - | 0 W/m² | - |
| 1778276572 | 12.78° C | 83% | 1015.3 hPa | 0 mm | - | 0 W/m² | - |
| 1778275071 | 13.33° C | 81% | 1015.2 hPa | 0 mm | - | 0 W/m² | - |
| 1778274474 | 13.89° C | 80% | 1015.1 hPa | 0 mm | - | 0 W/m² | - |
| 1778273871 | 13.89° C | 79% | 1015.1 hPa | 0 mm | - | 0 W/m² | - |
| 1778272971 | 13.89° C | 78% | 1015.1 hPa | 0 mm | - | 0 W/m² | - |
| 1778271774 | 15° C | 74% | 1015.1 hPa | 0 mm | - | 0 W/m² | - |
| 1778269071 | 16.67° C | 67% | 1014.7 hPa | 0 mm | - | 0 W/m² | - |
| 1778268177 | 16.67° C | 66% | 1014.3 hPa | 0 mm | - | 0 W/m² | - |
| 1778264874 | 17.22° C | 69% | 1013.4 hPa | 0 mm | - | 7 W/m² | - |
* Rain latest hour (hover to see other rain measurements)
** Current wind speed in m/s (hover to see current wind gust speed)